Lid_Strength_Index
1 -0 -0 -1 -1 -1 -1 -1 -1 -1 -1 -1 -1 -2 -2 -2 -2 -2 -2 -2 -2 -2 -2 -2 -2 -2 -2 -2 -2 -1 -1 -1 -1 -2 -2 -2 -2 -2 -2 -1 -2 -1 -2
-0 -1 -0 -1 -1 -1 -1 -1 -1 -1 -1 -1 -2 -2 -2 -2 -2 -1 -2 -2 -2 -2 -2 -2 -2 -2 -2 -1 -1 -1 -1 -2 -2 -2 -2 -2 -2 -2 -2 -2 -2 -1 -2
0 -1 -1 -1 -1 -1 -1 -1 -1 -1 -1 -1 -2 -2 -2 -2 -2 -2 -2 -2 -2 -2 -2 -2 -2 -1 -1 -1 -1 -1 -1 -1 -1 -2 -2 -1 -1 -2 -2 -2 -2 -2 -2
-0 -0 -0 -0 -1 -1 -1 -1 -1 -1 -1 -1 -2 -2 -2 -2 -2 -2 -2 -2 -2 -2 -2 -2 -1 -1 -1 -1 -1 -1 -1 -1 -1 -1 -1 -1 -1 -2 -2 -2 -2 -2 -2
-0 -0 -0 -0 -1 -1 -1 -1 -1 -1 -1 -1 -1 -2 -2 -2 -2 -2 -2 -2 -2 -2 -2 -2 -1 -1 -1 -1 -1 -1 -1 -1 -1 -1 -1 -1 -1 -1 -2 -2 -2 -2 -2
-0 -0 0 -0 -1 -1 -1 -1 -1 -1 -1 -1 -1 -1 -1 -2 -2 -2 -2 -2 -2 -2 -2 -2 -2 -1 -1 -1 -1 -1 -1 -1 -1 -1 -1 -1 -1 -2 -2 -2 -1 -1 -2
0 -0 -0 -0 -1 -1 -1 -1 -1 -1 -1 -1 -1 -1 -2 -2 -2 -2 -2 -2 -2 -2 -2 -2 -2 -1 -1 -1 -1 -1 -1 -1 -1 -1 -1 -1 -1 -2 -2 -1 -2 -2 -2
0 -0 -0 1 0 -0 -1 -1 -1 -1 -1 -1 -1 -1 -2 -2 -2 -2 -2 -2 -2 -2 -2 -2 -2 -1 -1 -1 -1 -1 -1 -1 -1 -1 -1 -1 -2 -2 -2 -1 -1 -1 -1
0 0 -0 -0 -0 1 0 0 -0 -0 -1 -1 -1 -1 -1 -1 -1 -2 -1 -2 -2 -2 -2 -2 -2 -1 -1 -1 -1 -1 -1 -0 -1 -1 -1 -1 -2 -2 -2 -1 -1 -1 -0
0 0 0 -0 -1 -1 -1 1 1 0 -0 -0 -0 -0 0 -0 -1 -1 -1 -2 -1 -2 -2 -2 -2 -1 -1 -1 -1 -1 -0 -0 -1 -1 -1 -1 -2 -2 -2 -1 -1 -0 0
7 1 -0 0 -0 -0 -0 0 2 1 1 1 1 1 1 -1 -1 -1 0 -1 -2 -2 -2 -2 -1 -1 -1 -0 -1 -0 0 -1 -1 -1 -1 -1 -2 -2 -1 -1 -1 -0 0
8 7 6 0 0 0 -0 0 -0 -1 -1 -1 -1 -1 -1 -1 -1 1 2 1 -1 -1 -1 -1 -1 -1 -0 -1 -1 -0 -1 -1 -1 -1 -1 -2 -2 -2 -1 -1 -0 0 0
7 7 7 4 0 0 0 -0 0 -0 -1 -1 -1 -1 -1 -1 -1 0 1 0 -1 1 -1 -1 -1 -1 -1 -1 -1 -1 -1 -1 -1 -1 -1 -1 -2 -2 -1 -1 -0 0 1
7 7 6 5 2 0 0 0 -0 0 -0 -0 -1 -1 -1 -0 -0 1 1 1 -1 -1 -1 -1 -1 -1 -1 -1 -1 -1 -1 -1 -1 -1 -1 0 -1 -2 -2 -1 -1 -0 0
7 7 7 4 6 1 1 0 -0 1 -0 -0 -1 -1 -1 -0 0 -0 1 1 -0 -1 -1 -0 -1 -1 -1 -1 -1 -1 -1 -1 -1 -1 -1 2 1 -1 -2 -2 -2 -1 -1
8 8 6 5 4 6 1 0 0 1 0 -0 -1 -1 -1 -1 -0 -0 -0 1 0 -1 -1 -1 -0 -0 -0 -1 -0 -1 -1 -1 -1 -1 -1 -1 1 0 -1 -2 -2 -2 -2
6 7 6 5 4 4 3 0 0 1 0 0 -0 -1 -1 -1 -0 -0 0 0 -0 -1 -0 -0 0 -0 -0 -0 -0 -0 -1 -1 -1 -1 -1 -1 -1 2 1 -1 -2 -2 -2
5 8 6 6 4 2 1 0 1 1 1 1 0 0 -1 -1 -0 0 0 0 -1 -1 -0 -0 1 1 1 1 1 1 0 -1 -1 -0 -0 -0 -0 -0 0 0 -1 -1 -2
5 5 7 5 3 1 0 0 1 1 2 2 1 1 0 -0 0 0 0 -0 -1 -0 -0 0 0 1 2 2 2 1 1 1 -0 0 0 1 0 0 -0 -0 1 2 -0
5 5 7 5 1 1 1 1 1 1 2 1 2 1 1 1 0 0 0 -0 -0 0 0 0 1 0 1 1 2 3 2 1 1 1 1 1 1 1 1 0 0 1 3
5 5 3 3 1 1 1 2 2 3 2 2 2 1 1 1 1 1 0 -0 -0 0 1 0 1 1 2 1 2 3 3 2 2 1 0 0 0 1 1 1 1 1 1
5 5 3 1 1 1 1 1 1 2 2 2 2 2 2 1 1 1 1 1 0 0 1 1 1 3 2 3 3 3 5 3 3 3 3 2 1 1 2 2 2 2 2
5 5 1 1 1 1 1 1 1 1 2 3 3 2 2 2 1 1 0 -0 0 0 1 1 1 1 2 4 4 3 6 6 5 5 5 4 4 3 3 3 3 4 4
5 5 1 1 1 1 1 2 2 3 3 3 3 2 2 2 2 2 1 -0 0 0 1 1 0 1 1 3 6 6 7 8 7 7 8 8 7 7 7 7 8 7 7
5 5 1 1 1 1 1 1 2 2 2 2 3 3 3 2 2 3 2 2 1 1 0 0 1 2 2 3 6 6 6 6 8 10 8 10 12 11 11 10 11 11 11
4 4 1 2 2 1 1 2 2 2 2 3 3 3 3 3 3 2 2 2 2 3 3 3 3 4 4 4 5 7 9 10 10 11 12 11 11 12 13 13 13 13 13